Location: Palomar Mountain Lodge
(33.3110°N, 116.8495°W)
Time: 14:56:24
(UTC-07:00)

SL-16 R/B - Pass Details

Date: 14 June 2018
Orbit: 841 x 849 km, 71.0° (Epoch: 17 October)

Event Time Altitude Azimuth Distance (km) Brightness Sun altitude
Rises 21:07:19 0° 333° (NNW) 3,403 6.7 -12.8°
Reaches altitude 10° 21:09:49 10° 329° (NNW) 2,466 5.8 -13.2°
Maximum altitude 21:15:18 53° 254° (WSW) 1,026 2.8 -14.1°
Drops below altitude 10° 21:20:46 10° 178° (S) 2,457 4.2 -14.9°
Enters shadow 21:20:50 10° 178° (S) 2,482 4.2 -14.9°
